Tracking 23441 objects as of 15-Jun-2021
HD Live streaming from Space Station
objects crossing your sky now

SAUDISAT 5A

Track SAUDISAT 5A now!
10-day predictions


NORAD ID: 43831
Int'l Code: 2018-102A
Perigee: 538.7 km
Apogee: 558.3 km
Inclination: 97.5 °
Period: 95.5 minutes
Semi major axis: 6919 km
RCS: Unknown
Launch date: December 7, 2018
Source: Saudi Arabia (SAUD)
Launch site: Jiuquan Satellite Launch Center, China (JSC)
aabbcc
Your satellite tracking list
Your tracking list is empty




NASA's NSSDC Master Catalog

Two Line Element Set (TLE):
1 43831U 18102A   21166.49976387  .00000905  00000-0  62254-4 0  9997
2 43831  97.5344 242.3574 0014188   2.7241 123.3015 15.08315204138857
Source of the keplerian elements: AFSPC